Location: Gazon
(48.1318°N, 1.2708°W)
Time: 22:55:31
(UTC+00:00)

NOSS 2-2 (E) - Pass Details

Date: 18 September 2020
Orbit: 468 x 1739 km, 63.3° (Epoch: 22 October)

Event Time Altitude Azimuth Distance (km) Brightness Sun altitude
Rises 19:11:00 0° 206° (SSW) 2,498 6.8 -10.8°
Reaches altitude 10° 19:13:05 10° 201° (SSW) 1,622 5.8 -11.1°
Maximum altitude 19:16:28 51° 125° (SE) 627 3.2 -11.7°
Drops below altitude 10° 19:20:17 10° 49° (NE) 1,827 5.7 -12.3°
Sets 19:22:44 0° 44° (NE) 2,860 6.7 -12.7°
